Zurück zum Katalog

STARLINK-35822

AktivKommunikationVLEO
NORAD 66362·PAYLOAD·🇺🇸 United States

Gestartet Nov 6, 2025 von Vandenberg Space Force Base

Loading…

Nächste Überflüge (nächste 24 Stunden)

TLE

AktuellSource: CelesTrak SupGP

Epoche: Sep 15, 2026, 02:41 UTC

1 66362C 25254Q   26258.11229167 -.00024930  00000+0 -73646-3 0  2589
2 66362  53.1571  70.6900 0001037  69.1362 308.5259 15.34407994    16

Verfolge STARLINK-35822 in Echtzeit mit AllMySat

Download on the App Store